Year,Month,Day,Hour,Minute,Value (Times are PST for temperature in C)
2019,05,30,00,00,13.20
2019,05,30,00,01,13.20
2019,05,30,00,02,13.20
2019,05,30,00,03,13.20
2019,05,30,00,04,13.20
2019,05,30,00,05,13.20
2019,05,30,00,06,13.20
2019,05,30,00,07,13.20
2019,05,30,00,08,13.20
2019,05,30,00,09,13.20
2019,05,30,00,10,13.20
2019,05,30,00,11,13.20
2019,05,30,00,12,13.20
2019,05,30,00,13,13.20
2019,05,30,00,14,13.20
2019,05,30,00,15,13.20
2019,05,30,00,16,13.20
2019,05,30,00,17,13.20
2019,05,30,00,18,13.20
2019,05,30,00,19,13.10
2019,05,30,00,20,13.20
2019,05,30,00,21,13.10
2019,05,30,00,22,13.10
2019,05,30,00,23,13.10
2019,05,30,00,24,13.10
2019,05,30,00,25,13.10
2019,05,30,00,26,13.10
2019,05,30,00,27,13.10
2019,05,30,00,28,13.10
2019,05,30,00,29,13.00
2019,05,30,00,30,13.00
2019,05,30,00,31,13.00
2019,05,30,00,32,13.00
2019,05,30,00,33,13.00
2019,05,30,00,34,13.00
2019,05,30,00,35,13.00
2019,05,30,00,36,13.00
2019,05,30,00,37,13.00
2019,05,30,00,38,13.00
2019,05,30,00,39,13.00
2019,05,30,00,40,13.00
2019,05,30,00,41,13.00
2019,05,30,00,42,13.00
2019,05,30,00,43,13.00
2019,05,30,00,44,13.00
2019,05,30,00,45,12.90
2019,05,30,00,46,12.90
2019,05,30,00,47,12.90
2019,05,30,00,48,12.90
2019,05,30,00,49,12.90
2019,05,30,00,50,12.90
2019,05,30,00,51,12.90
2019,05,30,00,52,12.90
2019,05,30,00,53,12.90
2019,05,30,00,54,12.90
2019,05,30,00,55,12.90
2019,05,30,00,56,12.90
2019,05,30,00,57,12.80
2019,05,30,00,58,12.80
2019,05,30,00,59,12.80
2019,05,30,01,00,12.80
2019,05,30,01,01,12.80
2019,05,30,01,02,12.80
2019,05,30,01,03,12.80
2019,05,30,01,04,12.80
2019,05,30,01,05,12.80
2019,05,30,01,06,12.80
2019,05,30,01,07,12.80
2019,05,30,01,08,12.80
2019,05,30,01,09,12.80
2019,05,30,01,10,12.80
2019,05,30,01,11,12.80
2019,05,30,01,12,12.80
2019,05,30,01,13,12.80
2019,05,30,01,14,12.80
2019,05,30,01,15,12.80
2019,05,30,01,16,12.80
2019,05,30,01,17,12.80
2019,05,30,01,18,12.70
2019,05,30,01,19,12.70
2019,05,30,01,20,12.70
2019,05,30,01,21,12.70
2019,05,30,01,22,12.70
2019,05,30,01,23,12.70
2019,05,30,01,24,12.70
2019,05,30,01,25,12.70
2019,05,30,01,26,12.70
2019,05,30,01,27,12.70
2019,05,30,01,28,12.70
2019,05,30,01,29,12.70
2019,05,30,01,30,12.70
2019,05,30,01,31,12.70
2019,05,30,01,32,12.70
2019,05,30,01,33,12.70
2019,05,30,01,34,12.70
2019,05,30,01,35,12.70
2019,05,30,01,36,12.70
2019,05,30,01,37,12.70
2019,05,30,01,38,12.70
2019,05,30,01,39,12.70
2019,05,30,01,40,12.70
2019,05,30,01,41,12.70
2019,05,30,01,42,12.70
2019,05,30,01,43,12.70
2019,05,30,01,44,12.70
2019,05,30,01,45,12.70
2019,05,30,01,46,12.70
2019,05,30,01,47,12.70
2019,05,30,01,48,12.60
2019,05,30,01,49,12.60
2019,05,30,01,50,12.60
2019,05,30,01,51,12.60
2019,05,30,01,52,12.60
2019,05,30,01,53,12.60
2019,05,30,01,54,12.60
2019,05,30,01,55,12.60
2019,05,30,01,56,12.70
2019,05,30,01,57,12.70
2019,05,30,01,58,12.70
2019,05,30,01,59,12.70
2019,05,30,02,00,12.70
2019,05,30,02,01,12.60
2019,05,30,02,02,12.60
2019,05,30,02,03,12.60
2019,05,30,02,04,12.60
2019,05,30,02,05,12.60
2019,05,30,02,06,12.60
2019,05,30,02,07,12.60
2019,05,30,02,08,12.60
2019,05,30,02,09,12.60
2019,05,30,02,10,12.60
2019,05,30,02,11,12.60
2019,05,30,02,12,12.60
2019,05,30,02,13,12.50
2019,05,30,02,14,12.50
2019,05,30,02,15,12.50
2019,05,30,02,16,12.50
2019,05,30,02,17,12.50
2019,05,30,02,18,12.50
2019,05,30,02,19,12.40
2019,05,30,02,20,12.40
2019,05,30,02,21,12.40
2019,05,30,02,22,12.40
2019,05,30,02,23,12.40
2019,05,30,02,24,12.40
2019,05,30,02,25,12.40
2019,05,30,02,26,12.40
2019,05,30,02,27,12.30
2019,05,30,02,28,12.30
2019,05,30,02,29,12.30
2019,05,30,02,30,12.30
2019,05,30,02,31,12.30
2019,05,30,02,32,12.30
2019,05,30,02,33,12.30
2019,05,30,02,34,12.30
2019,05,30,02,35,12.30
2019,05,30,02,36,12.30
2019,05,30,02,37,12.30
2019,05,30,02,38,12.30
2019,05,30,02,39,12.30
2019,05,30,02,40,12.30
2019,05,30,02,41,12.30
2019,05,30,02,42,12.30
2019,05,30,02,43,12.20
2019,05,30,02,44,12.20
2019,05,30,02,45,12.20
2019,05,30,02,46,12.20
2019,05,30,02,47,12.20
2019,05,30,02,48,12.20
2019,05,30,02,49,12.20
2019,05,30,02,50,12.20
2019,05,30,02,51,12.20
2019,05,30,02,52,12.20
2019,05,30,02,53,12.20
2019,05,30,02,54,12.20
2019,05,30,02,55,12.20
2019,05,30,02,56,12.20
2019,05,30,02,57,12.20
2019,05,30,02,58,12.20
2019,05,30,02,59,12.10
2019,05,30,03,00,12.10
2019,05,30,03,01,12.10
2019,05,30,03,02,12.10
2019,05,30,03,03,12.10
2019,05,30,03,04,12.10
2019,05,30,03,05,12.10
2019,05,30,03,06,12.10
2019,05,30,03,07,12.10
2019,05,30,03,08,12.10
2019,05,30,03,09,12.00
2019,05,30,03,10,12.00
2019,05,30,03,11,12.00
2019,05,30,03,12,12.00
2019,05,30,03,13,11.90
2019,05,30,03,14,11.90
2019,05,30,03,15,11.90
2019,05,30,03,16,11.90
2019,05,30,03,17,11.90
2019,05,30,03,18,11.90
2019,05,30,03,19,11.80
2019,05,30,03,20,11.80
2019,05,30,03,21,11.80
2019,05,30,03,22,11.80
2019,05,30,03,23,11.80
2019,05,30,03,24,11.80
2019,05,30,03,25,11.80
2019,05,30,03,26,11.80
2019,05,30,03,27,11.80
2019,05,30,03,28,11.80
2019,05,30,03,29,11.70
2019,05,30,03,30,11.80
2019,05,30,03,31,11.70
2019,05,30,03,32,11.70
2019,05,30,03,33,11.70
2019,05,30,03,34,11.70
2019,05,30,03,35,11.70
2019,05,30,03,36,11.70
2019,05,30,03,37,11.70
2019,05,30,03,38,11.70
2019,05,30,03,39,11.70
2019,05,30,03,40,11.70
2019,05,30,03,41,11.70
2019,05,30,03,42,11.70
2019,05,30,03,43,11.70
2019,05,30,03,44,11.70
2019,05,30,03,45,11.70
2019,05,30,03,46,11.70
2019,05,30,03,47,11.70
2019,05,30,03,48,11.60
2019,05,30,03,49,11.60
2019,05,30,03,50,11.60
2019,05,30,03,51,11.60
2019,05,30,03,52,11.60
2019,05,30,03,53,11.60
2019,05,30,03,54,11.60
2019,05,30,03,55,11.60
2019,05,30,03,56,11.50
2019,05,30,03,57,11.40
2019,05,30,03,58,11.40
2019,05,30,03,59,11.40
2019,05,30,04,00,11.40
2019,05,30,04,01,11.40
2019,05,30,04,02,11.30
2019,05,30,04,03,11.30
2019,05,30,04,04,11.30
2019,05,30,04,05,11.30
2019,05,30,04,06,11.30
2019,05,30,04,07,11.30
2019,05,30,04,08,11.30
2019,05,30,04,09,11.30
2019,05,30,04,10,11.30
2019,05,30,04,11,11.30
2019,05,30,04,12,11.30
2019,05,30,04,13,11.30
2019,05,30,04,14,11.30
2019,05,30,04,15,11.30
2019,05,30,04,16,11.30
2019,05,30,04,17,11.30
2019,05,30,04,18,11.30
2019,05,30,04,19,11.30
2019,05,30,04,20,11.30
2019,05,30,04,21,11.30
2019,05,30,04,22,11.30
2019,05,30,04,23,11.30
2019,05,30,04,24,11.30
2019,05,30,04,25,11.30
2019,05,30,04,26,11.30
2019,05,30,04,27,11.30
2019,05,30,04,28,11.30
2019,05,30,04,29,11.30
2019,05,30,04,30,11.30
2019,05,30,04,31,11.30
2019,05,30,04,32,11.30
2019,05,30,04,33,11.30
2019,05,30,04,34,11.30
2019,05,30,04,35,11.30
2019,05,30,04,36,11.30
2019,05,30,04,37,11.30
2019,05,30,04,38,11.30
2019,05,30,04,39,11.20
2019,05,30,04,40,11.30
2019,05,30,04,41,11.20
2019,05,30,04,42,11.20
2019,05,30,04,43,11.20
2019,05,30,04,44,11.20
2019,05,30,04,45,11.20
2019,05,30,04,46,11.20
2019,05,30,04,47,11.20
2019,05,30,04,48,11.20
2019,05,30,04,49,11.20
2019,05,30,04,50,11.20
2019,05,30,04,51,11.20
2019,05,30,04,52,11.30
2019,05,30,04,53,11.30
2019,05,30,04,54,11.30
2019,05,30,04,55,11.30
2019,05,30,04,56,11.30
2019,05,30,04,57,11.30
2019,05,30,04,58,11.30
2019,05,30,04,59,11.30
2019,05,30,05,00,11.30
2019,05,30,05,01,11.30
2019,05,30,05,02,11.20
2019,05,30,05,03,11.20
2019,05,30,05,04,11.20
2019,05,30,05,05,11.20
2019,05,30,05,06,11.20
2019,05,30,05,07,11.20
2019,05,30,05,08,11.20
2019,05,30,05,09,11.20
2019,05,30,05,10,11.20
2019,05,30,05,11,11.20
2019,05,30,05,12,11.10
2019,05,30,05,13,11.10
2019,05,30,05,14,11.10
2019,05,30,05,15,11.10
2019,05,30,05,16,11.10
2019,05,30,05,17,11.00
2019,05,30,05,18,10.90
2019,05,30,05,19,10.90
2019,05,30,05,20,10.90
2019,05,30,05,21,10.90
2019,05,30,05,22,10.80
2019,05,30,05,23,10.80
2019,05,30,05,24,10.80
2019,05,30,05,25,10.80
2019,05,30,05,26,10.70
2019,05,30,05,27,10.70
2019,05,30,05,28,10.70
2019,05,30,05,29,10.70
2019,05,30,05,30,10.70
2019,05,30,05,31,10.60
2019,05,30,05,32,10.60
2019,05,30,05,33,10.60
2019,05,30,05,34,10.60
2019,05,30,05,35,10.60
2019,05,30,05,36,10.60
2019,05,30,05,37,10.60
2019,05,30,05,38,10.60
2019,05,30,05,39,10.60
2019,05,30,05,40,10.60
2019,05,30,05,41,10.60
2019,05,30,05,42,10.60
2019,05,30,05,43,10.60
2019,05,30,05,44,10.60
2019,05,30,05,45,10.60
2019,05,30,05,46,10.60
2019,05,30,05,47,10.70
2019,05,30,05,48,10.70
2019,05,30,05,49,10.70
2019,05,30,05,50,10.70
2019,05,30,05,51,10.70
2019,05,30,05,52,10.70
2019,05,30,05,53,10.70
2019,05,30,05,54,10.70
2019,05,30,05,55,10.70
2019,05,30,05,56,10.80
2019,05,30,05,57,10.80
2019,05,30,05,58,10.80
2019,05,30,05,59,10.80
2019,05,30,06,00,10.80
2019,05,30,06,01,10.80
2019,05,30,06,02,10.90
2019,05,30,06,03,10.90
2019,05,30,06,04,10.90
2019,05,30,06,05,10.90
2019,05,30,06,06,11.00
2019,05,30,06,07,11.00
2019,05,30,06,08,11.00
2019,05,30,06,09,11.10
2019,05,30,06,10,11.10
2019,05,30,06,11,11.10
2019,05,30,06,12,11.10
2019,05,30,06,13,11.10
2019,05,30,06,14,11.10
2019,05,30,06,15,11.20
2019,05,30,06,16,11.20
2019,05,30,06,17,11.20
2019,05,30,06,18,11.20
2019,05,30,06,19,11.20
2019,05,30,06,20,11.30
2019,05,30,06,21,11.30
2019,05,30,06,22,11.30
2019,05,30,06,23,11.30
2019,05,30,06,24,11.30
2019,05,30,06,25,11.30
2019,05,30,06,26,11.30
2019,05,30,06,27,11.30
2019,05,30,06,28,11.30
2019,05,30,06,29,11.30
2019,05,30,06,30,11.30
2019,05,30,06,31,11.30
2019,05,30,06,32,11.30
2019,05,30,06,33,11.30
2019,05,30,06,34,11.30
2019,05,30,06,35,11.30
2019,05,30,06,36,11.30
2019,05,30,06,37,11.30
2019,05,30,06,38,11.30
2019,05,30,06,39,11.30
2019,05,30,06,40,11.30
2019,05,30,06,41,11.30
2019,05,30,06,42,11.30
2019,05,30,06,43,11.40
2019,05,30,06,44,11.40
2019,05,30,06,45,11.40
2019,05,30,06,46,11.40
2019,05,30,06,47,11.40
2019,05,30,06,48,11.50
2019,05,30,06,49,11.50
2019,05,30,06,50,11.50
2019,05,30,06,51,11.50
2019,05,30,06,52,11.60
2019,05,30,06,53,11.60
2019,05,30,06,54,11.60
2019,05,30,06,55,11.60
2019,05,30,06,56,11.60
2019,05,30,06,57,11.60
2019,05,30,06,58,11.60
2019,05,30,06,59,11.60
2019,05,30,07,00,11.60
2019,05,30,07,01,11.60
2019,05,30,07,02,11.60
2019,05,30,07,03,11.60
2019,05,30,07,04,11.60
2019,05,30,07,05,11.60
2019,05,30,07,06,11.60
2019,05,30,07,07,11.60
2019,05,30,07,08,11.60
2019,05,30,07,09,11.60
2019,05,30,07,10,11.60
2019,05,30,07,11,11.60
2019,05,30,07,12,11.70
2019,05,30,07,13,11.70
2019,05,30,07,14,11.70
2019,05,30,07,15,11.70
2019,05,30,07,16,11.70
2019,05,30,07,17,11.70
2019,05,30,07,18,11.70
2019,05,30,07,19,11.70
2019,05,30,07,20,11.80
2019,05,30,07,21,11.80
2019,05,30,07,22,11.80
2019,05,30,07,23,11.80
2019,05,30,07,24,11.80
2019,05,30,07,25,11.80
2019,05,30,07,26,11.80
2019,05,30,07,27,11.80
2019,05,30,07,28,11.80
2019,05,30,07,29,11.80
2019,05,30,07,30,11.80
2019,05,30,07,31,11.80
2019,05,30,07,32,11.80
2019,05,30,07,33,11.80
2019,05,30,07,34,11.80
2019,05,30,07,35,11.80
2019,05,30,07,36,11.80
2019,05,30,07,37,11.90
2019,05,30,07,38,11.90
2019,05,30,07,39,11.90
2019,05,30,07,40,11.90
2019,05,30,07,41,11.90
2019,05,30,07,42,12.00
2019,05,30,07,43,12.00
2019,05,30,07,44,12.10
2019,05,30,07,45,12.10
2019,05,30,07,46,12.10
2019,05,30,07,47,12.10
2019,05,30,07,48,12.10
2019,05,30,07,49,12.10
2019,05,30,07,50,12.10
2019,05,30,07,51,12.10
2019,05,30,07,52,12.10
2019,05,30,07,53,12.20
2019,05,30,07,54,12.20
2019,05,30,07,55,12.20
2019,05,30,07,56,12.20
2019,05,30,07,57,12.20
2019,05,30,07,58,12.20
2019,05,30,07,59,12.20
2019,05,30,08,00,12.20
2019,05,30,08,01,12.20
2019,05,30,08,02,12.30
2019,05,30,08,03,12.30
2019,05,30,08,04,12.30
2019,05,30,08,05,12.30
2019,05,30,08,06,12.30
2019,05,30,08,07,12.30
2019,05,30,08,08,12.40
2019,05,30,08,09,12.40
2019,05,30,08,10,12.50
2019,05,30,08,11,12.60
2019,05,30,08,12,12.60
2019,05,30,08,13,12.70
2019,05,30,08,14,12.70
2019,05,30,08,15,12.80
2019,05,30,08,16,12.80
2019,05,30,08,17,12.80
2019,05,30,08,18,12.90
2019,05,30,08,19,12.90
2019,05,30,08,20,13.00
2019,05,30,08,21,13.10
2019,05,30,08,22,13.10
2019,05,30,08,23,13.20
2019,05,30,08,24,13.20
2019,05,30,08,25,13.30
2019,05,30,08,26,13.30
2019,05,30,08,27,13.30
2019,05,30,08,28,13.30
2019,05,30,08,29,13.30
2019,05,30,08,30,13.30
2019,05,30,08,31,13.30
2019,05,30,08,32,13.30
2019,05,30,08,33,13.30
2019,05,30,08,34,13.40
2019,05,30,08,35,13.40
2019,05,30,08,36,13.40
2019,05,30,08,37,13.40
2019,05,30,08,38,13.40
2019,05,30,08,39,13.40
2019,05,30,08,40,13.30
2019,05,30,08,41,13.30
2019,05,30,08,42,13.30
2019,05,30,08,43,13.30
2019,05,30,08,44,13.20
2019,05,30,08,45,13.30
2019,05,30,08,46,13.30
2019,05,30,08,47,13.30
2019,05,30,08,48,13.40
2019,05,30,08,49,13.40
2019,05,30,08,50,13.50
2019,05,30,08,51,13.50
2019,05,30,08,52,13.60
2019,05,30,08,53,13.60
2019,05,30,08,54,13.70
2019,05,30,08,55,13.70
2019,05,30,08,56,13.80
2019,05,30,08,57,13.80
2019,05,30,08,58,13.80
2019,05,30,08,59,13.90
2019,05,30,09,00,13.90
2019,05,30,09,01,14.00
2019,05,30,09,02,14.10
2019,05,30,09,03,14.20
2019,05,30,09,04,14.30
2019,05,30,09,05,14.30
2019,05,30,09,06,14.40
2019,05,30,09,07,14.40
2019,05,30,09,08,14.40
2019,05,30,09,09,14.40
2019,05,30,09,10,14.50
2019,05,30,09,11,14.50
2019,05,30,09,12,14.60
2019,05,30,09,13,14.70
2019,05,30,09,14,14.70
2019,05,30,09,15,14.80
2019,05,30,09,16,14.80
2019,05,30,09,17,14.90
2019,05,30,09,18,14.90
2019,05,30,09,19,15.00
2019,05,30,09,20,15.10
2019,05,30,09,21,15.10
2019,05,30,09,22,15.10
2019,05,30,09,23,15.20
2019,05,30,09,24,15.20
2019,05,30,09,25,15.20
2019,05,30,09,26,15.30
2019,05,30,09,27,15.30
2019,05,30,09,28,15.30
2019,05,30,09,29,15.30
2019,05,30,09,30,15.30
2019,05,30,09,31,15.30
2019,05,30,09,32,15.30
2019,05,30,09,33,15.30
2019,05,30,09,34,15.20
2019,05,30,09,35,15.20
2019,05,30,09,36,15.30
2019,05,30,09,37,15.30
2019,05,30,09,38,15.30
2019,05,30,09,39,15.30
2019,05,30,09,40,15.40
2019,05,30,09,41,15.40
2019,05,30,09,42,15.50
2019,05,30,09,43,15.60
2019,05,30,09,44,15.70
2019,05,30,09,45,15.70
2019,05,30,09,46,15.80
2019,05,30,09,47,15.90
2019,05,30,09,48,15.90
2019,05,30,09,49,16.00
2019,05,30,09,50,16.10
2019,05,30,09,51,16.20
2019,05,30,09,52,16.20
2019,05,30,09,53,16.30
2019,05,30,09,54,16.30
2019,05,30,09,55,16.30
2019,05,30,09,56,16.30
2019,05,30,09,57,16.30
2019,05,30,09,58,16.30
2019,05,30,09,59,16.30
2019,05,30,10,00,16.30
2019,05,30,10,01,16.30
2019,05,30,10,02,16.30
2019,05,30,10,03,16.30
2019,05,30,10,04,16.30
2019,05,30,10,05,16.20
2019,05,30,10,06,16.20
2019,05,30,10,07,16.30
2019,05,30,10,08,16.30
2019,05,30,10,09,16.30
2019,05,30,10,10,16.40
2019,05,30,10,11,16.50
2019,05,30,10,12,16.60
2019,05,30,10,13,16.70
2019,05,30,10,14,16.70
2019,05,30,10,15,16.80
2019,05,30,10,16,16.80
2019,05,30,10,17,16.90
2019,05,30,10,18,17.10
2019,05,30,10,19,17.10
2019,05,30,10,20,17.20
2019,05,30,10,21,17.30
2019,05,30,10,22,17.40
2019,05,30,10,23,17.50
2019,05,30,10,24,17.60
2019,05,30,10,25,17.60
2019,05,30,10,26,17.60
2019,05,30,10,27,17.60
2019,05,30,10,28,17.60
2019,05,30,10,29,17.50
2019,05,30,10,30,17.40
2019,05,30,10,31,17.40
2019,05,30,10,32,17.30
2019,05,30,10,33,17.30
2019,05,30,10,34,17.30
2019,05,30,10,35,17.20
2019,05,30,10,36,17.20
2019,05,30,10,37,17.20
2019,05,30,10,38,17.20
2019,05,30,10,39,17.20
2019,05,30,10,40,17.20
2019,05,30,10,41,17.20
2019,05,30,10,42,17.20
2019,05,30,10,43,17.20
2019,05,30,10,44,17.20
2019,05,30,10,45,17.30
2019,05,30,10,46,17.30
2019,05,30,10,47,17.40
2019,05,30,10,48,17.60
2019,05,30,10,49,17.70
2019,05,30,10,50,17.80
2019,05,30,10,51,17.90
2019,05,30,10,52,17.90
2019,05,30,10,53,18.00
2019,05,30,10,54,18.10
2019,05,30,10,55,18.20
2019,05,30,10,56,18.20
2019,05,30,10,57,18.30
2019,05,30,10,58,18.30
2019,05,30,10,59,18.40
2019,05,30,11,00,18.40
2019,05,30,11,01,18.60
2019,05,30,11,02,18.60
2019,05,30,11,03,18.70
2019,05,30,11,04,18.70
2019,05,30,11,05,18.80
2019,05,30,11,06,18.80
2019,05,30,11,07,18.90
2019,05,30,11,08,19.00
2019,05,30,11,09,19.10
2019,05,30,11,10,19.10
2019,05,30,11,11,19.20
2019,05,30,11,12,19.20
2019,05,30,11,13,19.30
2019,05,30,11,14,19.30
2019,05,30,11,15,19.30
2019,05,30,11,16,19.40
2019,05,30,11,17,19.40
2019,05,30,11,18,19.50
2019,05,30,11,19,19.60
2019,05,30,11,20,19.60
2019,05,30,11,21,19.60
2019,05,30,11,22,19.60
2019,05,30,11,23,19.60
2019,05,30,11,24,19.60
2019,05,30,11,25,19.60
2019,05,30,11,26,19.60
2019,05,30,11,27,19.60
2019,05,30,11,28,19.60
2019,05,30,11,29,19.60
2019,05,30,11,30,19.60
2019,05,30,11,31,19.70
2019,05,30,11,32,19.70
2019,05,30,11,33,19.80
2019,05,30,11,34,19.90
2019,05,30,11,35,20.00
2019,05,30,11,36,20.20
2019,05,30,11,37,20.30
2019,05,30,11,38,20.40
2019,05,30,11,39,20.60
2019,05,30,11,40,20.70
2019,05,30,11,41,20.80
2019,05,30,11,42,20.90
2019,05,30,11,43,21.10
2019,05,30,11,44,21.20
2019,05,30,11,45,21.30
2019,05,30,11,46,21.40
2019,05,30,11,47,21.50
2019,05,30,11,48,21.60
2019,05,30,11,49,21.70
2019,05,30,11,50,21.70
2019,05,30,11,51,21.80
2019,05,30,11,52,21.80
2019,05,30,11,53,21.80
2019,05,30,11,54,21.80
2019,05,30,11,55,21.80
2019,05,30,11,56,21.80
2019,05,30,11,57,21.80
2019,05,30,11,58,21.70
2019,05,30,11,59,21.80
2019,05,30,12,00,21.80
2019,05,30,12,01,21.80
2019,05,30,12,02,21.80
2019,05,30,12,03,21.80
2019,05,30,12,04,21.90
2019,05,30,12,05,21.90
2019,05,30,12,06,21.90
2019,05,30,12,07,21.90
2019,05,30,12,08,21.90
2019,05,30,12,09,21.90
2019,05,30,12,10,21.90
2019,05,30,12,11,21.90
2019,05,30,12,12,21.90
2019,05,30,12,13,21.90
2019,05,30,12,14,22.00
2019,05,30,12,15,22.00
2019,05,30,12,16,22.10
2019,05,30,12,17,22.10
2019,05,30,12,18,22.10
2019,05,30,12,19,22.10
2019,05,30,12,20,22.10
2019,05,30,12,21,22.10
2019,05,30,12,22,22.10
2019,05,30,12,23,22.10
2019,05,30,12,24,22.20
2019,05,30,12,25,22.20
2019,05,30,12,26,22.20
2019,05,30,12,27,22.20
2019,05,30,12,28,22.30
2019,05,30,12,29,22.30
2019,05,30,12,30,22.30
2019,05,30,12,31,22.40
2019,05,30,12,32,22.30
2019,05,30,12,33,22.30
2019,05,30,12,34,22.30
2019,05,30,12,35,22.30
2019,05,30,12,36,22.30
2019,05,30,12,37,22.30
2019,05,30,12,38,22.40
2019,05,30,12,39,22.40
2019,05,30,12,40,22.50
2019,05,30,12,41,22.60
2019,05,30,12,42,22.70
2019,05,30,12,43,22.80
2019,05,30,12,44,22.80
2019,05,30,12,45,22.90
2019,05,30,12,46,22.90
2019,05,30,12,47,23.00
2019,05,30,12,48,23.00
2019,05,30,12,49,23.10
2019,05,30,12,50,23.00
2019,05,30,12,51,23.00
2019,05,30,12,52,23.00
2019,05,30,12,53,22.90
2019,05,30,12,54,22.80
2019,05,30,12,55,22.80
2019,05,30,12,56,22.80
2019,05,30,12,57,22.70
2019,05,30,12,58,22.70
2019,05,30,12,59,22.60
2019,05,30,13,00,22.60
2019,05,30,13,01,22.50
2019,05,30,13,02,22.40
2019,05,30,13,03,22.40
2019,05,30,13,04,22.40
2019,05,30,13,05,22.30
2019,05,30,13,06,22.30
2019,05,30,13,07,22.30
2019,05,30,13,08,22.30
2019,05,30,13,09,22.40
2019,05,30,13,10,22.50
2019,05,30,13,11,22.60
2019,05,30,13,12,22.60
2019,05,30,13,13,22.60
2019,05,30,13,14,22.60
2019,05,30,13,15,22.70
2019,05,30,13,16,22.70
2019,05,30,13,17,22.80
2019,05,30,13,18,22.80
2019,05,30,13,19,22.90
2019,05,30,13,20,22.90
2019,05,30,13,21,22.90
2019,05,30,13,22,22.90
2019,05,30,13,23,23.00
2019,05,30,13,24,23.10
2019,05,30,13,25,23.20
2019,05,30,13,26,23.20
2019,05,30,13,27,23.20
2019,05,30,13,28,23.30
2019,05,30,13,29,23.30
2019,05,30,13,30,23.30
2019,05,30,13,31,23.40
2019,05,30,13,32,23.60
2019,05,30,13,33,23.60
2019,05,30,13,34,23.60
2019,05,30,13,35,23.60
2019,05,30,13,36,23.60
2019,05,30,13,37,23.70
2019,05,30,13,38,23.80
2019,05,30,13,39,23.80
2019,05,30,13,40,23.90
2019,05,30,13,41,24.00
2019,05,30,13,42,24.10
2019,05,30,13,43,24.30
2019,05,30,13,44,24.30
2019,05,30,13,45,24.30
2019,05,30,13,46,24.30
2019,05,30,13,47,24.30
2019,05,30,13,48,24.40
2019,05,30,13,49,24.50
2019,05,30,13,50,24.70
2019,05,30,13,51,24.80
2019,05,30,13,52,24.80
2019,05,30,13,53,24.90
2019,05,30,13,54,25.00
2019,05,30,13,55,25.10
2019,05,30,13,56,25.10
2019,05,30,13,57,25.10
2019,05,30,13,58,25.10
2019,05,30,13,59,25.20
2019,05,30,14,00,25.20
2019,05,30,14,01,25.10
2019,05,30,14,02,25.10
2019,05,30,14,03,24.90
2019,05,30,14,04,25.00
2019,05,30,14,05,24.90
2019,05,30,14,06,24.90
2019,05,30,14,07,25.10
2019,05,30,14,08,25.20
2019,05,30,14,09,25.20
2019,05,30,14,10,25.20
2019,05,30,14,11,25.10
2019,05,30,14,12,25.10
2019,05,30,14,13,25.10
2019,05,30,14,14,25.00
2019,05,30,14,15,25.10
2019,05,30,14,16,25.10
2019,05,30,14,17,25.10
2019,05,30,14,18,25.10
2019,05,30,14,19,25.10
2019,05,30,14,20,25.10
2019,05,30,14,21,25.20
2019,05,30,14,22,25.20
2019,05,30,14,23,25.20
2019,05,30,14,24,25.20
2019,05,30,14,25,25.20
2019,05,30,14,26,25.20
2019,05,30,14,27,25.20
2019,05,30,14,28,25.20
2019,05,30,14,29,25.20
2019,05,30,14,30,25.30
2019,05,30,14,31,25.30
2019,05,30,14,32,25.30
2019,05,30,14,33,25.20
2019,05,30,14,34,25.10
2019,05,30,14,35,25.10
2019,05,30,14,36,25.10
2019,05,30,14,37,25.10
2019,05,30,14,38,25.10
2019,05,30,14,39,25.00
2019,05,30,14,40,24.90
2019,05,30,14,41,25.00
2019,05,30,14,42,25.10
2019,05,30,14,43,25.10
2019,05,30,14,44,25.20
2019,05,30,14,45,25.10
2019,05,30,14,46,25.10
2019,05,30,14,47,25.20
2019,05,30,14,48,25.30
2019,05,30,14,49,25.30
2019,05,30,14,50,25.40
2019,05,30,14,51,25.50
2019,05,30,14,52,25.50
2019,05,30,14,53,25.40
2019,05,30,14,54,25.40
2019,05,30,14,55,25.40
2019,05,30,14,56,25.50
2019,05,30,14,57,25.60
2019,05,30,14,58,25.70
2019,05,30,14,59,25.70
2019,05,30,15,00,25.70
2019,05,30,15,01,25.70
2019,05,30,15,02,25.70
2019,05,30,15,03,25.70
2019,05,30,15,04,25.70
2019,05,30,15,05,25.60
2019,05,30,15,06,25.70
2019,05,30,15,07,25.70
2019,05,30,15,08,25.80
2019,05,30,15,09,25.80
2019,05,30,15,10,25.90
2019,05,30,15,11,26.00
2019,05,30,15,12,26.10
2019,05,30,15,13,26.20
2019,05,30,15,14,26.20
2019,05,30,15,15,26.20
2019,05,30,15,16,26.20
2019,05,30,15,17,26.20
2019,05,30,15,18,26.20
2019,05,30,15,19,26.30
2019,05,30,15,20,26.30
2019,05,30,15,21,26.20
2019,05,30,15,22,26.20
2019,05,30,15,23,26.20
2019,05,30,15,24,26.20
2019,05,30,15,25,26.20
2019,05,30,15,26,26.20
2019,05,30,15,27,26.20
2019,05,30,15,28,26.10
2019,05,30,15,29,26.10
2019,05,30,15,30,26.00
2019,05,30,15,31,25.90
2019,05,30,15,32,25.80
2019,05,30,15,33,25.80
2019,05,30,15,34,25.70
2019,05,30,15,35,25.70
2019,05,30,15,36,25.70
2019,05,30,15,37,25.70
2019,05,30,15,38,25.70
2019,05,30,15,39,25.70
2019,05,30,15,40,25.70
2019,05,30,15,41,25.80
2019,05,30,15,42,25.80
2019,05,30,15,43,25.80
2019,05,30,15,44,25.80
2019,05,30,15,45,25.70
2019,05,30,15,46,25.60
2019,05,30,15,47,25.60
2019,05,30,15,48,25.60
2019,05,30,15,49,25.60
2019,05,30,15,50,25.60
2019,05,30,15,51,25.60
2019,05,30,15,52,25.60
2019,05,30,15,53,25.50
2019,05,30,15,54,25.40
2019,05,30,15,55,25.40
2019,05,30,15,56,25.30
2019,05,30,15,57,25.30
2019,05,30,15,58,25.20
2019,05,30,15,59,25.20
2019,05,30,16,00,25.20
2019,05,30,16,01,25.20
2019,05,30,16,02,25.20
2019,05,30,16,03,25.30
2019,05,30,16,04,25.30
2019,05,30,16,05,25.40
2019,05,30,16,06,25.50
2019,05,30,16,07,25.60
2019,05,30,16,08,25.60
2019,05,30,16,09,25.60
2019,05,30,16,10,25.60
2019,05,30,16,11,25.60
2019,05,30,16,12,25.60
2019,05,30,16,13,25.70
2019,05,30,16,14,25.80
2019,05,30,16,15,25.80
2019,05,30,16,16,25.80
2019,05,30,16,17,25.80
2019,05,30,16,18,25.80
2019,05,30,16,19,25.70
2019,05,30,16,20,25.70
2019,05,30,16,21,25.60
2019,05,30,16,22,25.50
2019,05,30,16,23,25.50
2019,05,30,16,24,25.40
2019,05,30,16,25,25.30
2019,05,30,16,26,25.30
2019,05,30,16,27,25.20
2019,05,30,16,28,25.20
2019,05,30,16,29,25.20
2019,05,30,16,30,25.20
2019,05,30,16,31,25.20
2019,05,30,16,32,25.10
2019,05,30,16,33,25.10
2019,05,30,16,34,25.10
2019,05,30,16,35,25.20
2019,05,30,16,36,25.20
2019,05,30,16,37,25.10
2019,05,30,16,38,25.10
2019,05,30,16,39,25.20
2019,05,30,16,40,25.20
2019,05,30,16,41,25.20
2019,05,30,16,42,25.20
2019,05,30,16,43,25.20
2019,05,30,16,44,25.20
2019,05,30,16,45,25.20
2019,05,30,16,46,25.20
2019,05,30,16,47,25.20
2019,05,30,16,48,25.20
2019,05,30,16,49,25.20
2019,05,30,16,50,25.20
2019,05,30,16,51,25.20
2019,05,30,16,52,25.20
2019,05,30,16,53,25.20
2019,05,30,16,54,25.20
2019,05,30,16,55,25.20
2019,05,30,16,56,25.30
2019,05,30,16,57,25.30
2019,05,30,16,58,25.30
2019,05,30,16,59,25.40
2019,05,30,17,00,25.50
2019,05,30,17,01,25.60
2019,05,30,17,02,25.60
2019,05,30,17,03,25.70
2019,05,30,17,04,25.60
2019,05,30,17,05,25.60
2019,05,30,17,06,25.40
2019,05,30,17,07,25.30
2019,05,30,17,08,25.20
2019,05,30,17,09,25.10
2019,05,30,17,10,25.00
2019,05,30,17,11,24.90
2019,05,30,17,12,24.90
2019,05,30,17,13,24.90
2019,05,30,17,14,24.90
2019,05,30,17,15,24.90
2019,05,30,17,16,24.80
2019,05,30,17,17,24.80
2019,05,30,17,18,24.80
2019,05,30,17,19,24.80